Location: Praha
(50.0830°N, 14.4670°E)
Time: 17:22:49
(UTC+01:00)

ISS - Pass Details

Date: 20 January 2020
Orbit: 415 x 421 km, 51.6° (Epoch: 18 January)

Event Time Altitude Azimuth Distance (km) Brightness Sun altitude
Rises 18:23:24 0° 192° (SSW) 2,352 0.4 -16.9°
Reaches altitude 10° 18:26:35 10° 159° (SSE) 1,492 -1.1 -17.4°
Enters shadow 18:26:50 11° 155° (SSE) 1,457 -1.2 -17.5°
